| time (UTC) | temp C | wind direction | speed KPH | gust KPH | rain 1hr cm | rain 24hr cm | rain mn cm | humidity % | barometer mb |
| 20260510231444 | 8 | 14 | 8.0 | 16.1 | 0.00 | 0.00 | 0.00 | 51 | 1018.0 |
| 20260510225950 | 9 | 5 | 4.8 | 11.3 | 0.00 | 0.00 | 0.00 | 49 | 1017.9 |
| 20260510224950 | 10 | 346 | 4.8 | 17.7 | 0.00 | 0.00 | 0.00 | 49 | 1017.8 |
| 20260510223951 | 10 | 355 | 4.8 | 11.3 | 0.00 | 0.00 | 0.00 | 48 | 1017.8 |
| 20260510222951 | 10 | 5 | 6.4 | 11.3 | 0.00 | 0.00 | 0.00 | 48 | 1017.6 |
| 20260510222427 | 10 | 257 | 3.2 | 9.7 | 0.00 | 0.00 | 0.00 | 46 | 1017.6 |
| 20260510221433 | 10 | 206 | 6.4 | 14.5 | 0.00 | 0.00 | 0.00 | 45 | 1017.5 |
| 20260510215951 | 10 | 308 | 6.4 | 17.7 | 0.00 | 0.00 | 0.00 | 45 | 1017.4 |
| 20260510214950 | 11 | 236 | 6.4 | 16.1 | 0.00 | 0.00 | 0.00 | 43 | 1017.4 |
| 20260510214444 | 11 | 23 | 6.4 | 16.1 | 0.00 | 0.00 | 0.00 | 44 | 1017.3 |
| 20260510212951 | 11 | 215 | 6.4 | 14.5 | 0.00 | 0.00 | 0.00 | 45 | 1017.2 |
| 20260510211942 | 11 | 343 | 9.7 | 19.3 | 0.00 | 0.00 | 0.00 | 46 | 1017.1 |
| 20260510210942 | 11 | 13 | 6.4 | 19.3 | 0.00 | 0.00 | 0.00 | 45 | 1017.0 |
| 20260510205942 | 10 | 205 | 8.0 | 17.7 | 0.00 | 0.00 | 0.00 | 44 | 1016.9 |
| 20260510204942 | 10 | 355 | 6.4 | 14.5 | 0.00 | 0.00 | 0.00 | 45 | 1016.9 |
| 20260510203942 | 10 | 5 | 9.7 | 20.9 | 0.00 | 0.00 | 0.00 | 44 | 1016.8 |
| 20260510202942 | 11 | 334 | 8.0 | 19.3 | 0.00 | 0.00 | 0.00 | 42 | 1016.7 |
| 20260510201942 | 10 | 346 | 12.9 | 24.1 | 0.00 | 0.00 | 0.00 | 44 | 1016.6 |
| 20260510200942 | 11 | 26 | 6.4 | 17.7 | 0.00 | 0.00 | 0.00 | 40 | 1016.8 |
| 20260510195942 | 11 | 342 | 6.4 | 16.1 | 0.00 | 0.00 | 0.00 | 40 | 1016.8 |
| 20260510194942 | 11 | 351 | 6.4 | 20.9 | 0.00 | 0.05 | 0.00 | 42 | 1016.7 |
| 20260510193945 | 10 | 286 | 6.4 | 17.7 | 0.00 | 0.33 | 0.00 | 41 | 1016.8 |
| 20260510192946 | 10 | 303 | 8.0 | 24.1 | 0.00 | 0.38 | 0.00 | 45 | 1016.8 |
| 20260510191945 | 10 | 252 | 8.0 | 22.5 | 0.00 | 0.38 | 0.00 | 45 | 1016.9 |
| 20260510190938 | 10 | 194 | 8.0 | 20.9 | 0.00 | 0.38 | 0.00 | 46 | 1016.9 |
| 20260510185937 | 10 | 84 | 8.0 | 20.9 | 0.00 | 0.38 | 0.00 | 46 | 1017.0 |
| 20260510184935 | 10 | 344 | 11.3 | 27.4 | 0.00 | 0.38 | 0.00 | 49 | 1016.8 |
| 20260510183934 | 10 | 204 | 6.4 | 17.7 | 0.00 | 0.38 | 0.00 | 50 | 1016.8 |
| 20260510182934 | 9 | 327 | 11.3 | 25.7 | 0.00 | 0.38 | 0.00 | 53 | 1016.6 |
| 20260510181935 | 9 | 195 | 9.7 | 22.5 | 0.00 | 0.38 | 0.00 | 49 | 1016.6 |
| 20260510181426 | 10 | 355 | 9.7 | 25.7 | 0.00 | 0.38 | 0.00 | 50 | 1016.6 |
| 20260510175934 | 10 | 193 | 8.0 | 30.6 | 0.00 | 0.38 | 0.00 | 52 | 1016.4 |
| 20260510174934 | 10 | 51 | 6.4 | 19.3 | 0.00 | 0.38 | 0.00 | 49 | 1016.2 |
| 20260510173924 | 9 | 291 | 8.0 | 30.6 | 0.00 | 0.38 | 0.00 | 50 | 1016.2 |
| 20260510172924 | 8 | 5 | 14.5 | 32.2 | 0.00 | 0.38 | 0.00 | 50 | 1015.9 |
| 20260510171924 | 9 | 0 | 9.7 | 24.1 | 0.00 | 0.38 | 0.00 | 53 | 1016.0 |
| 20260510170924 | 9 | 343 | 8.0 | 20.9 | 0.00 | 0.38 | 0.00 | 53 | 1015.8 |
| 20260510165924 | 9 | 304 | 9.7 | 19.3 | 0.00 | 0.38 | 0.00 | 54 | 1015.8 |
| 20260510165844 | 9 | 14 | 9.7 | 24.1 | 0.00 | 0.38 | 0.00 | 59 | 1015.6 |
| 20260510163924 | 8 | 0 | 8.0 | 22.5 | 0.00 | 0.38 | 0.00 | 61 | 1015.5 |
| 20260510162924 | 8 | 309 | 11.3 | 25.7 | 0.00 | 0.38 | 0.00 | 61 | 1015.6 |
| 20260510161924 | 8 | 345 | 8.0 | 24.1 | 0.00 | 0.38 | 0.00 | 59 | 1015.5 |
| 20260510160921 | 9 | 5 | 8.0 | 24.1 | 0.00 | 0.38 | 0.00 | 62 | 1015.4 |
| 20260510155922 | 9 | 189 | 8.0 | 25.7 | 0.00 | 0.38 | 0.00 | 61 | 1015.4 |
| 20260510154923 | 8 | 313 | 8.0 | 19.3 | 0.00 | 0.38 | 0.00 | 59 | 1015.3 |
| 20260510153922 | 9 | 285 | 6.4 | 19.3 | 0.00 | 0.38 | 0.00 | 61 | 1015.2 |
| 20260510152922 | 9 | 5 | 8.0 | 24.1 | 0.00 | 0.38 | 0.00 | 62 | 1015.0 |
| 20260510152330 | 8 | 355 | 9.7 | 27.4 | 0.00 | 0.38 | 0.00 | 63 | 1014.5 |
| 20260510151955 | 9 | 323 | 6.4 | 17.7 | 0.00 | 0.38 | 0.00 | 65 | 1014.7 |
| 20260510145922 | 8 | 241 | 9.7 | 29.0 | 0.00 | 0.38 | 0.00 | 62 | 1014.4 |
| 20260510144922 | 9 | 238 | 8.0 | 19.3 | 0.00 | 0.38 | 0.00 | 63 | 1014.3 |
| 20260510143921 | 9 | 219 | 6.4 | 14.5 | 0.00 | 0.38 | 0.00 | 62 | 1014.2 |
| 20260510142922 | 8 | 259 | 8.0 | 22.5 | 0.00 | 0.38 | 0.00 | 65 | 1014.1 |
| 20260510141922 | 8 | 19 | 8.0 | 25.7 | 0.00 | 0.38 | 0.00 | 63 | 1013.9 |
| 20260510140921 | 8 | 346 | 8.0 | 17.7 | 0.00 | 0.38 | 0.00 | 62 | 1013.8 |
| 20260510140436 | 8 | 168 | 8.0 | 20.9 | 0.00 | 0.38 | 0.00 | 64 | 1013.8 |
| 20260510140327 | 8 | 0 | 8.0 | 17.7 | 0.00 | 0.38 | 0.00 | 64 | 1013.6 |
| 20260510133922 | 7 | 321 | 8.0 | 19.3 | 0.00 | 0.38 | 0.00 | 68 | 1013.5 |
| 20260510132915 | 7 | 0 | 9.7 | 22.5 | 0.00 | 0.38 | 0.00 | 67 | 1013.4 |
| 20260510131916 | 7 | 57 | 6.4 | 16.1 | 0.00 | 0.38 | 0.00 | 67 | 1013.2 |
| 20260510131844 | 7 | 355 | 8.0 | 19.3 | 0.00 | 0.38 | 0.00 | 67 | 1013.2 |
| 20260510125916 | 7 | 24 | 9.7 | 25.7 | 0.00 | 0.38 | 0.00 | 68 | 1013.1 |
| 20260510124915 | 7 | 291 | 6.4 | 12.9 | 0.00 | 0.38 | 0.00 | 69 | 1013.0 |
| 20260510124349 | 6 | 286 | 6.4 | 14.5 | 0.00 | 0.38 | 0.00 | 69 | 1013.0 |
| 20260510123346 | 6 | 331 | 6.4 | 14.5 | 0.00 | 0.38 | 0.00 | 70 | 1013.0 |
| 20260510121905 | 6 | 293 | 4.8 | 14.5 | 0.00 | 0.38 | 0.00 | 72 | 1012.8 |
| 20260510120906 | 6 | 195 | 4.8 | 12.9 | 0.00 | 0.38 | 0.00 | 73 | 1012.7 |
| 20260510115905 | 5 | 240 | 4.8 | 14.5 | 0.00 | 0.38 | 0.00 | 74 | 1012.5 |
| 20260510115306 | 4 | 306 | 6.4 | 16.1 | 0.00 | 0.38 | 0.00 | 78 | 1012.4 |
| 20260510114939 | 5 | 234 | 6.4 | 14.5 | 0.00 | 0.38 | 0.00 | 76 | 1012.5 |
| 20260510112906 | 3 | 76 | 3.2 | 8.0 | 0.00 | 0.38 | 0.00 | 79 | 1012.3 |
| 20260510111905 | 3 | 19 | 6.4 | 16.1 | 0.00 | 0.38 | 0.00 | 80 | 1012.1 |
| 20260510110905 | 3 | 190 | 3.2 | 8.0 | 0.00 | 0.38 | 0.00 | 81 | 1012.0 |
| 20260510105905 | 3 | 277 | 3.2 | 11.3 | 0.00 | 0.38 | 0.00 | 82 | 1011.7 |
| 20260510104905 | 2 | 271 | 1.6 | 8.0 | 0.00 | 0.38 | 0.00 | 82 | 1011.6 |
| 20260510104351 | 2 | 154 | 1.6 | 6.4 | 0.00 | 0.38 | 0.00 | 82 | 1011.3 |
| 20260510102903 | 2 | 277 | 0.0 | 4.8 | 0.00 | 0.38 | 0.00 | 82 | 1011.2 |
| 20260510101903 | 2 | 259 | 1.6 | 6.4 | 0.00 | 0.38 | 0.00 | 82 | 1011.0 |
| 20260510100903 | 2 | 153 | 0.0 | 3.2 | 0.00 | 0.38 | 0.00 | 82 | 1010.8 |
| 20260510095904 | 3 | 178 | 1.6 | 6.4 | 0.00 | 0.38 | 0.00 | 81 | 1010.7 |
| 20260510094903 | 3 | 215 | 1.6 | 11.3 | 0.00 | 0.38 | 0.00 | 81 | 1010.6 |
| 20260510093903 | 3 | 227 | 1.6 | 4.8 | 0.00 | 0.38 | 0.00 | 80 | 1010.2 |
| 20260510092903 | 3 | 269 | 1.6 | 3.2 | 0.00 | 0.38 | 0.00 | 79 | 1010.1 |
| 20260510091858 | 3 | 328 | 1.6 | 4.8 | 0.00 | 0.38 | 0.00 | 79 | 1010.0 |
| 20260510090857 | 3 | 317 | 0.0 | 4.8 | 0.00 | 0.38 | 0.00 | 78 | 1009.9 |
| 20260510085857 | 3 | 269 | 1.6 | 8.0 | 0.00 | 0.38 | 0.00 | 78 | 1009.8 |
| 20260510084857 | 3 | 349 | 3.2 | 11.3 | 0.00 | 0.38 | 0.00 | 77 | 1009.7 |
| 20260510083857 | 3 | 355 | 4.8 | 12.9 | 0.00 | 0.38 | 0.00 | 77 | 1009.5 |
| 20260510082857 | 3 | 270 | 3.2 | 11.3 | 0.00 | 0.38 | 0.00 | 77 | 1009.4 |
| 20260510081856 | 3 | 0 | 1.6 | 8.0 | 0.00 | 0.38 | 0.00 | 77 | 1009.3 |
| 20260510080857 | 3 | 319 | 3.2 | 9.7 | 0.00 | 0.38 | 0.00 | 77 | 1009.2 |
| 20260510075857 | 3 | 344 | 3.2 | 8.0 | 0.00 | 0.38 | 0.00 | 78 | 1009.2 |
| 20260510075330 | 3 | 334 | 1.6 | 12.9 | 0.00 | 0.38 | 0.00 | 79 | 1009.2 |
| 20260510073851 | 3 | 154 | 0.0 | 4.8 | 0.00 | 0.38 | 0.00 | 79 | 1009.0 |
| 20260510072851 | 3 | 216 | 0.0 | 3.2 | 0.00 | 0.38 | 0.00 | 78 | 1008.8 |
| 20260510072328 | 4 | 152 | 0.0 | 4.8 | 0.00 | 0.38 | 0.00 | 77 | 1008.7 |
| 20260510070851 | 4 | 224 | 1.6 | 3.2 | 0.00 | 0.38 | 0.00 | 77 | 1008.4 |
| 20260510065850 | 5 | 144 | 1.6 | 3.2 | 0.00 | 0.38 | 0.00 | 75 | 1008.4 |
| 20260510065334 | 5 | 165 | 1.6 | 6.4 | 0.00 | 0.38 | 0.00 | 74 | 1008.4 |
| 20260510063851 | 5 | 196 | 1.6 | 4.8 | 0.00 | 0.38 | 0.00 | 73 | 1008.4 |
| 20260510062851 | 5 | 355 | 1.6 | 8.0 | 0.00 | 0.38 | 0.00 | 72 | 1008.4 |
| 20260510061840 | 5 | 34 | 0.0 | 6.4 | 0.00 | 0.38 | 0.00 | 71 | 1008.3 |
| 20260510060841 | 5 | 305 | 1.6 | 8.0 | 0.00 | 0.38 | 0.00 | 71 | 1008.2 |
| 20260510055840 | 5 | 13 | 1.6 | 8.0 | 0.00 | 0.38 | 0.00 | 70 | 1008.2 |
| 20260510054841 | 5 | 244 | 3.2 | 8.0 | 0.00 | 0.38 | 0.00 | 70 | 1008.1 |
| 20260510053841 | 5 | 240 | 3.2 | 8.0 | 0.00 | 0.38 | 0.00 | 70 | 1008.1 |
| 20260510053329 | 5 | 355 | 3.2 | 9.7 | 0.00 | 0.38 | 0.00 | 69 | 1008.0 |
| 20260510051841 | 5 | 306 | 3.2 | 8.0 | 0.00 | 0.38 | 0.00 | 70 | 1008.0 |
| 20260510050840 | 5 | 317 | 4.8 | 14.5 | 0.00 | 0.38 | 0.00 | 71 | 1007.8 |
| 20260510045840 | 5 | 336 | 6.4 | 16.1 | 0.00 | 0.38 | 0.00 | 71 | 1007.7 |
| 20260510044833 | 6 | 14 | 4.8 | 16.1 | 0.00 | 0.38 | 0.00 | 71 | 1007.6 |
| 20260510043832 | 6 | 328 | 6.4 | 16.1 | 0.00 | 0.38 | 0.00 | 71 | 1007.4 |
| 20260510042830 | 6 | 87 | 6.4 | 22.5 | 0.00 | 0.38 | 0.00 | 71 | 1007.2 |
| 20260510042328 | 6 | 297 | 4.8 | 14.5 | 0.00 | 0.38 | 0.00 | 72 | 1007.1 |
| 20260510040830 | 6 | 344 | 4.8 | 14.5 | 0.00 | 0.38 | 0.00 | 71 | 1007.0 |
| 20260510035831 | 6 | 29 | 4.8 | 17.7 | 0.00 | 0.38 | 0.38 | 71 | 1006.8 |
| 20260510034830 | 6 | 298 | 4.8 | 12.9 | 0.00 | 0.38 | 0.38 | 71 | 1006.7 |
| 20260510033831 | 6 | 302 | 6.4 | 16.1 | 0.00 | 0.38 | 0.38 | 70 | 1006.5 |
| 20260510032833 | 7 | 346 | 4.8 | 14.5 | 0.00 | 0.38 | 0.38 | 68 | 1006.3 |
| 20260510032323 | 7 | 171 | 3.2 | 14.5 | 0.00 | 0.38 | 0.38 | 69 | 1006.1 |
| 20260510030828 | 7 | 314 | 1.6 | 14.5 | 0.00 | 0.38 | 0.38 | 69 | 1006.1 |
| 20260510025829 | 7 | 311 | 3.2 | 8.0 | 0.00 | 0.38 | 0.38 | 69 | 1005.8 |
| 20260510024828 | 7 | 227 | 3.2 | 9.7 | 0.00 | 0.38 | 0.38 | 68 | 1005.7 |
| 20260510023829 | 7 | 277 | 1.6 | 11.3 | 0.00 | 0.38 | 0.38 | 67 | 1005.7 |
| 20260510022823 | 7 | 246 | 1.6 | 8.0 | 0.00 | 0.38 | 0.38 | 65 | 1005.6 |
| 20260510021823 | 8 | 48 | 1.6 | 8.0 | 0.00 | 0.38 | 0.38 | 64 | 1005.4 |
| 20260510020823 | 8 | 311 | 3.2 | 8.0 | 0.00 | 0.38 | 0.38 | 62 | 1005.2 |
| 20260510015823 | 8 | 23 | 3.2 | 11.3 | 0.00 | 0.38 | 0.38 | 61 | 1005.0 |
| 20260510014823 | 8 | 343 | 3.2 | 8.0 | 0.00 | 0.38 | 0.38 | 61 | 1005.0 |
| 20260510013823 | 8 | 307 | 4.8 | 9.7 | 0.00 | 0.38 | 0.38 | 61 | 1004.8 |
| 20260510012823 | 8 | 0 | 4.8 | 11.3 | 0.00 | 0.38 | 0.38 | 61 | 1004.3 |
| 20260510012256 | 9 | 23 | 4.8 | 14.5 | 0.00 | 0.38 | 0.38 | 60 | 1004.1 |
| 20260510010823 | 9 | 355 | 3.2 | 11.3 | 0.00 | 0.38 | 0.38 | 61 | 1004.0 |
| 20260510005823 | 9 | 301 | 4.8 | 11.3 | 0.00 | 0.38 | 0.38 | 63 | 1003.8 |
| 20260510004823 | 10 | 10 | 4.8 | 19.3 | 0.00 | 0.38 | 0.38 | 63 | 1003.7 |
| 20260510003822 | 10 | 287 | 6.4 | 16.1 | 0.00 | 0.38 | 0.38 | 65 | 1003.5 |
| 20260510002820 | 10 | 355 | 3.2 | 16.1 | 0.00 | 0.38 | 0.38 | 65 | 1003.4 |
| 20260510001820 | 10 | 281 | 3.2 | 9.7 | 0.00 | 0.38 | 0.38 | 66 | 1003.3 |
| 20260510001256 | 10 | 336 | 3.2 | 12.9 | 0.00 | 0.38 | 0.38 | 67 | 1002.9 |
| 20260510001146 | 10 | 249 | 4.8 | 9.7 | 0.00 | 0.38 | 0.38 | 68 | 1002.6 |
| 20260509235840 | 10 | 346 | 3.2 | 12.9 | 0.00 | 0.38 | 0.38 | 66 | 1002.9 |
| 20260509233819 | 10 | 351 | 4.8 | 14.5 | 0.00 | 0.38 | 0.38 | 68 | 1002.3 |
| 20260509232818 | 11 | 331 | 4.8 | 12.9 | 0.00 | 0.38 | 0.38 | 68 | 1002.1 |
| 20260509232300 | 11 | 338 | 4.8 | 12.9 | 0.00 | 0.38 | 0.38 | 68 | 1002.2 |